Miscellaneous Local Product
Issued by NWS Hastings, NE

Home | Current Version | Previous Version | Text Only | Print | Product List | Glossary Off
Versions: 1 2 3 4 5 6 7 8 9 10 11 12 13 14 15 16 17 18 19 20 21 22 23 24 25 26 27 28 29 30 31 32 33 34 35 36 37 38 39 40 41 42 43 44 45 46 47 48 49 50

482
AXUS43 KGID 222102
MISGRI

GID CWA HOURLY WEATHER ROUNDUP
NATIONAL WEATHER SERVICE HASTINGS NE
300 PM CST MON JAN 22 2018

NOTE: "FAIR" INDICATES FEW OR NO CLOUDS BELOW 12,000 FEET WITH NO
SIGNIFICANT WEATHER AND/OR OBSTRUCTIONS TO VISIBILITY.

...SOUTH CENTRAL NEBRASKA...

CITY           SKY/WX    TMP DP  RH WIND       PRES   REMARKS
GRAND ISLAND   LGT SNOW  27  24  89 NW32G44   29.72R VSB 3/4 WCI  10
KEARNEY        CLOUDY    32  26  78 NW21G26   29.78R WCI  20
HASTINGS       MIX PCPN  30  23  75 NW32G45   29.72R WCI  14
ORD            CLOUDY    29  23  78 NW26G37   29.77R HAZE    WCI  14
YORK           HVY SNOW  28  28 100 N22G33    29.63R VSB 1/4 WCI  15
AURORA           N/A     28  26  96 N35G44    29.70R WCI  11
LEXINGTON      CLOUDY    32  25  76 NW17      29.83R WCI  20
HOLDREGE       CLOUDY    32  28  84 NW10      29.79R WCI  24
HEBRON         LGT SNOW  32  30  92 NW25G35   29.66R VSB 3/4 WCI  19

...NEBRASKA PANHANDLE...

CITY           SKY/WX    TMP DP  RH WIND       PRES   REMARKS
CHADRON        SUNNY     26  15  63 W16       30.00S WCI  14
ALLIANCE       SUNNY     29  19  66 NW13G22   29.95R WCI  19
SCOTTSBLUFF    SUNNY     31  18  58 NW20G25   29.99S WCI  19
SIDNEY         SUNNY     32  19  58 NW26G35   29.94F WCI  18

...WESTERN AND NORTH CENTRAL NEBRASKA...

CITY           SKY/WX    TMP DP  RH WIND       PRES   REMARKS
VALENTINE      SUNNY     32  21  64 NW18G28   29.90R WCI  20
AINSWORTH      MOSUNNY   30  24  77 NW20G28   29.88R WCI  18
ONEILL         CLOUDY    25  23  94 NW26G32   29.82R WCI   9
BROKEN BOW     CLOUDY    31  23  72 NW29G40   29.81R WCI  16
IMPERIAL       SUNNY     31  19  61 NW21G28   29.92R WCI  18
NORTH PLATTE   MOSUNNY   34  21  59 NW18G26   29.89R WCI  23
MCCOOK         SUNNY     33  23  66 NW20G31   29.89R WCI  21

...EASTERN NEBRASKA...

CITY           SKY/WX    TMP DP  RH WIND       PRES   REMARKS
NORFOLK        CLOUDY    24  22  91 NW30G41   29.68R FOG     WCI   7
SO SIOUX CITY  SNOW      29  28  96 N29G39    29.64R VSB 1/4 WCI  14
TEKAMAH        SNOW      30  29  96 N37G48    29.57  VSB 1/2 WCI  14
COLUMBUS       SNOW      26  25  96 MISG      29.66R VSB 1/4
ALBION         SNOW      26  22  87 N29G38    29.73R VSB 1/2 WCI   9
OMAHA EPPLEY   LGT SNOW  32  31  96 N24G37    29.52R VSB 3/4 WCI  19
OFFUTT AFB     LGT SNOW  33  31  93 N21G29    29.49R FOG     WCI  21
MILLARD        LGT SNOW  32  31  94 N18G29    29.51R WCI  21
LINCOLN        HVY SNOW  29  27  92 N32G47    29.58R VSB 1/4 WCI  13
NEBRASKA CITY  LGT SNOW  32  32 100 N21G30    29.46R WCI  20
BEATRICE       SNOW      31  29  93 N30G40    29.58R VSB 1/2 WCI  16
FALLS CITY     CLOUDY    33  31  92 NW21      29.44R FOG     WCI  21

...NORTHERN KANSAS...

CITY           SKY/WX    TMP DP  RH WIND       PRES   REMARKS
GOODLAND       MIX PCPN  31  21  66 NW20      29.93R WCI  19
HILL CITY      MOSUNNY   36  26  67 NW24G41   29.85R WCI  24
NORTON         PTCLDY    34  23  64 NW25G33   29.84R WCI  21
PHILLIPSBURG   SUNNY     36  27  69 NW18G28   29.82R WCI  25
SMITH CENTER   PTSUNNY   34  27  75 NW29G37   29.77R WCI  20
HAYS           CLOUDY    37  26  64 NW28G36   29.83R WCI  25
RUSSELL        CLOUDY    36  29  75 NW31G43   29.78R WCI  23
CONCORDIA      LGT SNOW  31  30  96 NW26G35   29.67R VSB 3/4 WCI  17
SALINA         LGT SNOW  36  33  89 NW32G38   29.69R FOG     WCI  23
TOPEKA         LGT SNOW  33  31  92 W13G22    29.51R FOG     WCI  24



USA.gov is the U.S. government's official web portal to all federal, state and local government web resources and services.